| time (UTC) | temp C | wind direction | speed KPH | gust KPH | rain 1hr cm | rain 24hr cm | rain mn cm | humidity % | barometer mb |
| 20260507160808 | 3 | 278 | 4.8 | 11.3 | 0.00 | 0.00 | 0.00 | 69 | 1017.2 |
| 20260507160307 | 3 | 281 | 4.8 | 9.7 | 0.00 | 0.00 | 0.00 | 69 | 1017.2 |
| 20260507150807 | 2 | 280 | 4.8 | 8.0 | 0.00 | 0.00 | 0.00 | 72 | 1017.1 |
| 20260507150308 | 2 | 292 | 3.2 | 8.0 | 0.00 | 0.00 | 0.00 | 72 | 1017.1 |
| 20260507140807 | 0 | 285 | 3.2 | 9.7 | 0.00 | 0.00 | 0.00 | 79 | 1017.0 |
| 20260507140308 | 0 | 290 | 4.8 | 8.0 | 0.00 | 0.00 | 0.00 | 83 | 1017.0 |
| 20260507130807 | -1 | 285 | 3.2 | 4.8 | 0.00 | 0.00 | 0.00 | 85 | 1016.8 |
| 20260507130307 | -1 | 283 | 3.2 | 4.8 | 0.00 | 0.00 | 0.00 | 86 | 1016.8 |
| 20260507120807 | 0 | 286 | 3.2 | 4.8 | 0.00 | 0.00 | 0.00 | 83 | 1016.4 |
| 20260507120307 | 0 | 275 | 3.2 | 8.0 | 0.00 | 0.00 | 0.00 | 81 | 1016.4 |
| 20260507110807 | 1 | 280 | 4.8 | 4.8 | 0.00 | 0.00 | 0.00 | 78 | 1016.2 |
| 20260507110307 | 1 | 278 | 4.8 | 8.0 | 0.00 | 0.00 | 0.00 | 77 | 1016.2 |
| 20260507100806 | 1 | 283 | 4.8 | 8.0 | 0.00 | 0.00 | 0.00 | 75 | 1015.8 |
| 20260507100307 | 1 | 258 | 4.8 | 8.0 | 0.00 | 0.00 | 0.00 | 75 | 1015.7 |
| 20260507090307 | 1 | 286 | 4.8 | 9.7 | 0.00 | 0.00 | 0.00 | 73 | 1015.0 |
| 20260507080807 | 1 | 165 | 4.8 | 8.0 | 0.00 | 0.00 | 0.00 | 76 | 1014.4 |
| 20260507080308 | 1 | 274 | 3.2 | 8.0 | 0.00 | 0.00 | 0.00 | 76 | 1014.4 |
| 20260507070815 | 2 | 145 | 4.8 | 8.0 | 0.00 | 0.00 | 0.00 | 72 | 1013.8 |
| 20260507060807 | 5 | 286 | 4.8 | 8.0 | 0.00 | 0.00 | 0.00 | 60 | 1013.0 |
| 20260507060307 | 5 | 273 | 4.8 | 14.5 | 0.00 | 0.00 | 0.00 | 60 | 1012.9 |
| 20260507050308 | 6 | 217 | 4.8 | 14.5 | 0.00 | 0.00 | 0.00 | 59 | 1012.4 |
| 20260507040807 | 7 | 273 | 6.4 | 9.7 | 0.00 | 0.00 | 0.00 | 63 | 1012.0 |
| 20260507040306 | 7 | 59 | 4.8 | 14.5 | 0.00 | 0.00 | 0.00 | 62 | 1012.0 |
| 20260507020808 | 10 | 331 | 8.0 | 12.9 | 0.00 | 0.00 | 0.00 | 56 | 1011.0 |
| 20260507020308 | 10 | 274 | 9.7 | 19.3 | 0.00 | 0.00 | 0.00 | 56 | 1010.6 |
| 20260507010807 | 10 | 272 | 8.0 | 14.5 | 0.00 | 0.00 | 0.00 | 55 | 1010.7 |
| 20260507010308 | 10 | 316 | 8.0 | 16.1 | 0.00 | 0.00 | 0.00 | 56 | 1010.8 |
| 20260507000807 | 9 | 286 | 9.7 | 14.5 | 0.00 | 0.00 | 0.00 | 56 | 1011.0 |
| 20260506230807 | 10 | 302 | 8.0 | 16.1 | 0.00 | 0.00 | 0.00 | 55 | 1010.9 |
| 20260506230307 | 10 | 290 | 8.0 | 14.5 | 0.00 | 0.00 | 0.00 | 55 | 1010.9 |
| 20260506220807 | 10 | 343 | 8.0 | 12.9 | 0.00 | 0.00 | 0.00 | 56 | 1010.9 |
| 20260506220309 | 10 | 303 | 8.0 | 16.1 | 0.00 | 0.00 | 0.00 | 55 | 1010.9 |
| 20260506210806 | 10 | 270 | 4.8 | 12.9 | 0.00 | 0.00 | 0.00 | 54 | 1010.8 |
| 20260506200806 | 9 | 293 | 8.0 | 12.9 | 0.00 | 0.00 | 0.00 | 57 | 1010.9 |
| 20260506200308 | 9 | 279 | 9.7 | 14.5 | 0.00 | 0.00 | 0.00 | 57 | 1011.0 |
| 20260506190808 | 9 | 278 | 8.0 | 12.9 | 0.00 | 0.00 | 0.00 | 56 | 1010.6 |
| 20260506190310 | 9 | 277 | 6.4 | 11.3 | 0.00 | 0.00 | 0.00 | 57 | 1010.7 |
| 20260506180807 | 8 | 336 | 4.8 | 9.7 | 0.00 | 0.00 | 0.00 | 60 | 1011.0 |
| 20260506170307 | 6 | 273 | 4.8 | 9.7 | 0.00 | 0.00 | 0.00 | 68 | 1011.5 |